Tracking 19795 objects as of 19-Jul-2019
HD Live streaming from Space Station
objects crossing your sky now

THORAD DELTA 1 DEB

Track THORAD DELTA 1 DEB now!
10-day predictions


NORAD ID: 8403
Int'l Code: 1974-089CF
Perigee: 1,442.8 km
Apogee: 1,528.1 km
Inclination: 101.3 °
Period: 115.5 minutes
Semi major axis: 7856 km
RCS: 0.0456 m2 (small)
Launch date: November 15, 1974
Source: United States (US)
Launch site: AIR FORCE WESTERN TEST RANGE (AFWTR)

Note: This is SATELLITE DEBRIS
aabbcc
Your satellite tracking list
Your tracking list is empty




NASA's NSSDC Master Catalog

Two Line Element Set (TLE):
1  8403U 74089CF  19200.49550174 -.00000016  00000-0  17391-3 0  9992
2  8403 101.3098  22.8679 0054325 231.7726 155.0539 12.46699578 35092
Source of the keplerian elements: AFSPC